This demonstration page uses our WeatherBlox Daily Observations layout. Learn more.

Left ArrowRight Arrow

39.01783, -85.05884

Hourly Observations for October 27, 2020

Temp ( °F °C ) Dew Point ( °F °C ) Humidity (%) Winds ( mph kmh ) Pressure ( in mb ) Visibility ( mi km ) Precip ( " mm )
12:52 am 00:52 Mostly Cloudy with Light Rain 46 7.8 42 5.6 86 86 N 8 13 30.25 1024 6 9.65604 0.001 0.001
1:10 am 01:10 Mostly Cloudy with Light Rain 46 7.8 42 5.6 86 86 N 7 11 30.27 1025 6 9.65604 0.001 0.001
1:36 am 01:36 Mostly Cloudy with Light Rain 46 7.8 42 5.6 86 86 ENE 7 11 30.24 1024 6 9.65604 0.001 0.001
1:52 am 01:52 Mostly Cloudy with Mist and Fog 46 7.8 42 5.6 86 86 ENE 9 15 30.22 1023 5 8.0467 0.001 0.001
2:18 am 02:18 Mostly Cloudy with Mist and Fog 46 7.8 43 6.1 89 89 NE 5 7 30.25 1024 5 8.0467 0 0
2:36 am 02:36 Cloudy with Mist and Fog 47 8.3 43 6.1 86 86 NE 7 11 30.24 1024 5 8.0467 0 0
2:52 am 02:52 Cloudy with Mist and Fog 47 8.3 43 6.1 86 86 ENE 7 11 30.22 1023 5 8.0467 0 0
3:52 am 03:52 Cloudy with Mist and Fog 47 8.3 43 6.1 86 86 NE 7 11 30.24 1024 6 9.65604 0 0
4:52 am 04:52 Cloudy 47 8.3 43 6.1 86 86 ENE 6 9 30.24 1024 7 11.26538 0 0
5:52 am 05:52 Cloudy 47 8.3 42 5.6 83 83 NE 6 9 30.25 1024 7 11.26538 0 0
6:10 am 06:10 Cloudy 47 8.3 43 6.1 86 86 ENE 6 9 30.27 1025 7 11.26538 0 0
6:52 am 06:52 Cloudy 47 8.3 43 6.1 86 86 ENE 5 7 30.24 1024 7 11.26538 0 0
6:59 am 06:59 Cloudy 47 8.3 43 6.1 86 86 NE 6 9 30.26 1025 7 11.26538 0 0
7:25 am 07:25 Cloudy 47 8.3 43 6.1 86 86 NE 7 11 30.26 1025 7 11.26538 0 0
7:52 am 07:52 Cloudy 47 8.3 42 5.6 83 83 NE 8 13 30.24 1024 7 11.26538 0 0
8:52 am 08:52 Cloudy with Mist and Fog 47 8.3 43 6.1 86 86 E 6 9 30.24 1024 5 8.0467 0 0
9:52 am 09:52 Cloudy with Haze 47 8.3 42 5.6 83 83 Calm 30.26 1025 5 8.0467 0 0
10:04 am 10:04 Cloudy with Haze 48 8.9 43 6.1 83 83 Calm 30.29 1026 5 8.0467 0 0
10:52 am 10:52 Cloudy with Haze 48 8.9 43 6.1 83 83 E 5 7 30.25 1024 5 8.0467 0 0
11:04 am 11:04 Cloudy with Haze 49 9.4 43 6.1 80 80 E 6 9 30.25 1024 6 9.65604 0 0
11:52 am 11:52 Cloudy 49 9.4 44 6.7 83 83 ENE 3 6 30.22 1024 7 11.26538 0 0
12:52 pm 12:52 Cloudy with Light Rain 50 10 44 6.7 80 80 Calm 30.22 1024 7 11.26538 0.001 0.001
1:09 pm 13:09 Cloudy 50 10 44 6.7 80 80 NNW 5 7 30.23 1024 7 11.26538 0.001 0.001
1:52 pm 13:52 Cloudy with Haze 50 10 44 6.7 80 80 NNE 3 6 30.2 1023 6 9.65604 0.001 0.001
2:41 pm 14:41 Cloudy with Haze 52 11.1 45 7.2 77 77 Calm 30.19 1022 6 9.65604 0 0
2:52 pm 14:52 Cloudy with Haze 51 10.6 45 7.2 80 80 Calm 30.17 1022 6 9.65604 0 0
3:52 pm 15:52 Cloudy with Light Rain 52 11.1 45 7.2 77 77 Calm 30.14 1021 6 9.65604 0.001 0.001
4:15 pm 16:15 Cloudy with Light Rain 52 11.1 46 7.8 80 80 Calm 30.16 1021 6 9.65604 0.001 0.001
4:52 pm 16:52 Cloudy with Haze 52 11.1 46 7.8 80 80 NW 3 6 30.14 1021 6 9.65604 0.001 0.001
5:52 pm 17:52 Cloudy with Light Rain 50 10 47 8.3 89 89 NNW 8 13 30.16 1022 5 8.0467 0.01 0.254
6:37 pm 18:37 Cloudy with Mist and Fog 50 10 46 7.8 86 86 Calm 30.17 1022 5 8.0467 0.001 0.001
6:52 pm 18:52 Cloudy with Mist and Fog 50 10 46 7.8 86 86 Calm 30.15 1021 6 9.65604 0.001 0.001
7:52 pm 19:52 Cloudy with Mist and Fog 50 10 47 8.3 89 89 Calm 30.15 1021 6 9.65604 0 0
8:52 pm 20:52 Cloudy with Mist and Fog 51 10.6 47 8.3 86 86 Calm 30.14 1021 6 9.65604 0 0
9:33 pm 21:33 Cloudy with Mist and Fog 51 10.6 48 8.9 89 89 Calm 30.14 1021 5 8.0467 0 0
9:52 pm 21:52 Cloudy with Mist and Fog 51 10.6 47 8.3 86 86 N 3 6 30.13 1020 5 8.0467 0 0
10:20 pm 22:20 Cloudy with Mist and Fog 51 10.6 47 8.3 86 86 NNW 5 7 30.14 1021 5 8.0467 0 0
10:52 pm 22:52 Cloudy with Mist and Fog 50 10 47 8.3 89 89 N 8 13 30.14 1021 5 8.0467 0 0
11:24 pm 23:24 Cloudy with Mist and Fog 49 9.4 46 7.8 90 90 N 9 15 30.15 1021 4 6.43736 0 0
11:52 pm 23:52 Cloudy with Mist and Fog 49 9.4 46 7.8 90 90 N 7 11 30.14 1021 2.5 4.02335 0 0
11:56 pm 23:56 Cloudy with Mist and Fog 49 9.4 47 8.3 93 93 VRB 6 9 30.15 1021 3 4.82802 0 0
11:59 pm 23:59 Cloudy with Mist and Fog 49 9.4 47 8.3 93 93 N 7 11 30.15 1021 1 1.60934 0 0

Powered by AerisWeather